User: anonymous   Login
Location: Newark
(46.2358°N, 112.1211°W)
Time: 01:34:58
(UTC+00:00)
Language:

DELFI C3 - Orbit

View from above orbital plane
View from above orbital plane
View from above satellite
View from above satellite

Ground track
Ground track

The orbit data is extracted from the following two-line orbital elements,

1 32789U 08021G   20192.76151258  .00000426  00000-0  31768-4 0  9990
2 32789  97.4164 234.7472 0010652 230.5125 129.5162 15.07781910665421
Epoch (UTC): 10 July 2020 18:16:34
Eccentricity: 0.0010652
inclination: 97.4164°
perigee height: 535 km
apogee height: 550 km
right ascension of ascending node: 234.7472°
argument of perigee: 230.5125°
revolutions per day: 15.07781910
mean anomaly at epoch: 129.5162°
orbit number at epoch: 66542

The dashed part of the orbit path shows where the satellite is in the earth's shadow,  

DLR